Погода в Ильнице

Украина / Закарпатская область     48°21′10″N   23°04′25″E
темп.,
°C
ветер,
м/с
пор.,
м/с
влажн.,
%
обл.,
%
осадки,
мм/ч
давл.,
гПа
погр.,
м
27 октября, ср
ср2700:00+5св115860 0.0 102610
03:00+4всв1162100 0.0 102610
06:00+4в116386 0.0 102610
09:00+4в11635 0.0 102810
12:00+10ююз104514 0.0 1029410
15:00+13зюз114012 0.0 1027678
18:00+9юз005148 0.0 102710
21:00+7всв115959 0.0 102810
28 октября, чт
чт2800:00+6всв116663 0.0 102910
03:00+5в117116 0.0 102810
06:00+4в117544 0.0 102810
09:00+5в117099 0.0 102914
12:00+12юв114719 0.0 1028359
15:00+14з01405 0.0 1027613
18:00+11зсз005121 0.0 102610
21:00+8всв1160100 0.0 102610
29 октября, пт
пт2900:00+7всв226614 0.0 102611
03:00+7всв227116 0.0 102511
06:00+6всв227473 0.0 102511
09:00+7в227196 0.0 102514
12:00+14вюв114558 0.0 1024283
15:00+17ю113619 0.0 1022556
18:00+13св114918 0.0 102210
21:00+11всв22585 0.0 102212
30 октября, сб
сб3000:00+9всв22644 0.0 102312
03:00+9всв22670 0.0 102310
06:00+8в22685 0.0 102310
09:00+8в11675 0.0 102411
12:00+15юв12465 0.0 1023334
15:00+17ю23385 0.0 1023806
18:00+13в01505 0.0 102311
21:00+11всв21594 0.0 102310
31 октября, вс
вс3100:00+9всв22660 0.0 102312
03:00+8в21740 0.0 102310
05:00+7в11780 0.0 102210
08:00+7в21750 0.0 102113
11:00+14ююв12480 0.0 1020387
14:00+16ю34380 0.0 1018975
17:00+12юв11497 0.0 101710
20:00+10в22565 0.0 101711